EZY39PC EGPH-EGGW

Flight info

Callsign EZY39PC
Flight time 1h 1m
Altitude 33000
Route GOSAM P600 FENIK L612 NAVSO DCT AKOMU DCT VAMEB UL612 LISTO
Aircraft A320/M-SDE3FGHIRWY/LB1

Departure

Time 2026-05-04 15:45
Airport Edinburgh Airport (EGPH)

Arrival

Time 2026-05-04 16:46
Airport London Luton Airport (EGGW)
Time Latitude Longitude Altitude Speed Heading
2026-05-04 15:15 55.94892 -3.36009 117 ft 0 kts 254°
2026-05-04 15:34 55.94894 -3.35992 112 ft 4 kts 253°
2026-05-04 15:34 55.94903 -3.35946 112 ft 3 kts 249°
2026-05-04 15:34 55.94928 -3.35864 113 ft 4 kts 214°
2026-05-04 15:35 55.94948 -3.35860 113 ft 0 kts 142°
2026-05-04 15:40 55.94934 -3.35838 114 ft 7 kts 139°
2026-05-04 15:40 55.94925 -3.35854 113 ft 2 kts 315°
2026-05-04 15:40 55.94933 -3.35860 114 ft 1 kts 334°
2026-05-04 15:40 55.94986 -3.35855 115 ft 14 kts 18°
2026-05-04 15:41 55.95065 -3.35786 114 ft 12 kts 17°
2026-05-04 15:41 55.95114 -3.35858 114 ft 9 kts 294°
2026-05-04 15:41 55.95154 -3.35935 115 ft 8 kts 326°
2026-05-04 15:41 55.95204 -3.35988 113 ft 9 kts 340°
2026-05-04 15:42 55.95249 -3.35954 113 ft 7 kts 60°
2026-05-04 15:42 55.95269 -3.35887 112 ft 5 kts 61°
2026-05-04 15:42 55.95299 -3.35795 115 ft 15 kts 59°
2026-05-04 15:42 55.95354 -3.35631 115 ft 15 kts 59°
2026-05-04 15:43 55.95403 -3.35483 116 ft 12 kts 59°
2026-05-04 15:43 55.95456 -3.35403 116 ft 9 kts 354°
2026-05-04 15:43 55.95504 -3.35447 113 ft 7 kts 329°
2026-05-04 15:43 55.95566 -3.35535 113 ft 13 kts 294°
2026-05-04 15:44 55.95556 -3.35612 112 ft 0 kts 238°
2026-05-04 15:44 55.95431 -3.35976 111 ft 73 kts 238°
2026-05-04 15:44 55.95052 -3.37094 113 ft 135 kts 239°
2026-05-04 15:45 55.94490 -3.38746 295 ft 165 kts 239°
2026-05-04 15:45 55.93930 -3.40470 1098 ft 157 kts 240°
2026-05-04 15:45 55.93361 -3.42137 1783 ft 158 kts 239°
2026-05-04 15:45 55.92746 -3.43890 2203 ft 177 kts 238°
2026-05-04 15:46 55.92047 -3.45881 2491 ft 202 kts 238°
2026-05-04 15:46 55.91262 -3.48127 2859 ft 225 kts 238°
2026-05-04 15:46 55.90490 -3.50715 3262 ft 249 kts 254°
2026-05-04 15:46 55.90149 -3.53815 3956 ft 259 kts 260°
2026-05-04 15:47 55.89835 -3.57001 4827 ft 263 kts 259°
2026-05-04 15:47 55.89376 -3.60176 5697 ft 267 kts 254°
2026-05-04 15:47 55.88843 -3.63365 6561 ft 270 kts 253°
2026-05-04 15:47 55.88281 -3.66581 7405 ft 274 kts 253°
2026-05-04 15:48 55.87705 -3.69836 8231 ft 277 kts 252°
2026-05-04 15:48 55.87120 -3.73132 9044 ft 281 kts 252°
2026-05-04 15:48 55.85924 -3.79928 10392 ft 298 kts 253°
2026-05-04 15:49 55.85283 -3.83594 10625 ft 322 kts 253°
2026-05-04 15:49 55.84594 -3.87535 10819 ft 344 kts 253°
2026-05-04 15:49 55.83871 -3.91670 11326 ft 354 kts 253°
2026-05-04 15:49 55.83134 -3.95891 12006 ft 359 kts 253°
2026-05-04 15:50 55.82387 -4.00145 12695 ft 362 kts 253°
2026-05-04 15:50 55.81629 -4.04436 13361 ft 366 kts 252°
2026-05-04 15:50 55.80862 -4.08769 14017 ft 369 kts 252°
2026-05-04 15:50 55.80084 -4.13137 14646 ft 373 kts 251°
2026-05-04 15:51 55.79027 -4.17360 15237 ft 377 kts 240°
2026-05-04 15:51 55.77478 -4.21138 15827 ft 381 kts 227°
2026-05-04 15:51 55.75488 -4.24274 16418 ft 385 kts 215°
2026-05-04 15:51 55.73071 -4.26325 16969 ft 389 kts 195°
2026-05-04 15:52 55.70370 -4.26774 17530 ft 394 kts 175°
2026-05-04 15:52 55.67726 -4.25469 18060 ft 399 kts 154°
2026-05-04 15:52 55.65261 -4.23138 18615 ft 403 kts 152°
2026-05-04 15:52 55.62804 -4.20726 19166 ft 406 kts 151°
2026-05-04 15:53 55.60335 -4.18274 19698 ft 409 kts 151°
2026-05-04 15:53 55.57843 -4.15797 20199 ft 412 kts 151°
2026-05-04 15:53 55.55332 -4.13311 20685 ft 415 kts 151°
2026-05-04 15:53 55.52793 -4.10818 21150 ft 418 kts 151°
2026-05-04 15:54 55.50238 -4.08330 21623 ft 421 kts 152°
2026-05-04 15:54 55.47661 -4.05834 22049 ft 424 kts 152°
2026-05-04 15:54 55.45067 -4.03323 22466 ft 427 kts 152°
2026-05-04 15:54 55.42456 -4.00796 22876 ft 430 kts 152°
2026-05-04 15:55 55.39829 -3.98253 23271 ft 432 kts 152°
2026-05-04 15:55 55.37192 -3.95699 23688 ft 434 kts 152°
2026-05-04 15:55 55.34541 -3.93136 24064 ft 436 kts 152°
2026-05-04 15:55 55.31874 -3.90558 24407 ft 439 kts 152°
2026-05-04 15:56 55.29188 -3.87971 24744 ft 442 kts 152°
2026-05-04 15:56 55.26483 -3.85374 25098 ft 443 kts 152°
2026-05-04 15:56 55.23766 -3.82770 25440 ft 445 kts 152°
2026-05-04 15:56 55.21036 -3.80186 25768 ft 447 kts 153°
2026-05-04 15:57 55.18261 -3.77695 26078 ft 449 kts 154°
2026-05-04 15:57 55.15448 -3.75280 26374 ft 451 kts 154°
2026-05-04 15:57 55.12609 -3.72903 26669 ft 453 kts 155°
2026-05-04 15:57 55.09753 -3.70529 26965 ft 455 kts 155°
2026-05-04 15:58 55.06896 -3.68142 27244 ft 457 kts 155°
2026-05-04 15:58 55.04031 -3.65720 27501 ft 459 kts 154°
2026-05-04 15:58 55.01155 -3.63265 27752 ft 460 kts 154°
2026-05-04 15:58 54.98277 -3.60797 27992 ft 462 kts 154°
2026-05-04 15:59 54.95390 -3.58322 28235 ft 464 kts 154°
2026-05-04 15:59 54.92489 -3.55843 28463 ft 465 kts 154°
2026-05-04 15:59 54.89582 -3.53369 28723 ft 465 kts 154°
2026-05-04 15:59 54.86675 -3.50905 29033 ft 464 kts 154°
2026-05-04 16:00 54.83772 -3.48452 29339 ft 464 kts 154°
2026-05-04 16:00 54.80874 -3.46010 29635 ft 463 kts 154°
2026-05-04 16:00 54.77981 -3.43580 29935 ft 462 kts 154°
2026-05-04 16:00 54.75088 -3.41151 30234 ft 462 kts 154°
2026-05-04 16:01 54.72200 -3.38726 30520 ft 461 kts 154°
2026-05-04 16:01 54.69308 -3.36300 30808 ft 461 kts 154°
2026-05-04 16:01 54.66426 -3.33882 31102 ft 460 kts 154°
2026-05-04 16:01 54.63545 -3.31468 31385 ft 460 kts 154°
2026-05-04 16:02 54.60666 -3.29059 31664 ft 459 kts 154°
2026-05-04 16:02 54.57787 -3.26658 31928 ft 460 kts 154°
2026-05-04 16:02 54.52013 -3.21857 32441 ft 460 kts 155°
2026-05-04 16:03 54.49134 -3.19469 32708 ft 460 kts 154°
2026-05-04 16:03 54.46255 -3.17078 32945 ft 460 kts 154°
2026-05-04 16:03 54.43369 -3.14685 33008 ft 461 kts 155°
2026-05-04 16:04 54.37574 -3.09907 33010 ft 462 kts 155°
2026-05-04 16:04 54.28912 -3.02796 33010 ft 460 kts 155°
2026-05-04 16:05 54.23148 -2.98071 33008 ft 459 kts 155°
2026-05-04 16:06 54.14487 -2.91078 33007 ft 459 kts 156°
2026-05-04 16:07 54.03724 -2.83367 33005 ft 458 kts 158°
2026-05-04 16:08 53.91979 -2.74922 33002 ft 458 kts 157°
2026-05-04 16:09 53.80628 -2.66698 33001 ft 458 kts 157°
2026-05-04 16:10 53.68882 -2.58284 33000 ft 458 kts 157°
2026-05-04 16:11 53.57114 -2.49910 32996 ft 459 kts 158°
2026-05-04 16:12 53.39440 -2.37443 33012 ft 459 kts 158°
2026-05-04 16:13 53.27656 -2.29191 33011 ft 459 kts 158°
2026-05-04 16:14 53.15876 -2.20934 33009 ft 459 kts 155°
2026-05-04 16:15 53.07917 -2.12083 33004 ft 460 kts 144°
2026-05-04 16:16 53.02752 -2.05785 33002 ft 460 kts 144°
2026-05-04 16:17 52.89815 -1.90141 33003 ft 460 kts 144°
2026-05-04 16:18 52.79463 -1.77698 32995 ft 460 kts 144°
2026-05-04 16:19 52.71410 -1.69136 32255 ft 460 kts 153°
2026-05-04 16:19 52.65720 -1.64255 30980 ft 465 kts 153°
2026-05-04 16:20 52.57084 -1.56843 27527 ft 475 kts 153°
2026-05-04 16:20 52.51230 -1.51836 25682 ft 467 kts 153°
2026-05-04 16:21 52.42722 -1.44584 23324 ft 452 kts 153°
2026-05-04 16:22 52.37195 -1.39905 21882 ft 443 kts 153°
2026-05-04 16:22 52.29102 -1.33074 19872 ft 430 kts 152°
2026-05-04 16:23 52.21459 -1.25938 18607 ft 417 kts 149°
2026-05-04 16:24 52.11570 -1.16490 16911 ft 407 kts 150°
2026-05-04 16:25 52.06756 -1.11989 16077 ft 402 kts 148°
2026-05-04 16:26 52.00777 -0.97243 14359 ft 387 kts 99°
2026-05-04 16:26 52.01231 -0.84709 13102 ft 369 kts 84°
2026-05-04 16:27 52.01867 -0.76578 12249 ft 358 kts 75°
2026-05-04 16:28 52.05867 -0.66862 10974 ft 342 kts 45°
2026-05-04 16:28 52.10777 -0.58728 9697 ft 330 kts 45°
2026-05-04 16:29 52.17001 -0.48358 8460 ft 301 kts 45°
2026-05-04 16:30 52.20808 -0.41044 8084 ft 267 kts 68°
2026-05-04 16:31 52.21112 -0.35330 7998 ft 252 kts 100°
2026-05-04 16:31 52.20223 -0.26885 8009 ft 252 kts 99°
2026-05-04 16:32 52.17763 -0.19749 7755 ft 254 kts 154°
2026-05-04 16:33 52.14380 -0.18372 7049 ft 249 kts 170°
2026-05-04 16:33 52.10985 -0.17901 6344 ft 244 kts 194°
2026-05-04 16:34 52.08286 -0.20613 5734 ft 237 kts 230°
2026-05-04 16:34 52.07196 -0.22616 5538 ft 236 kts 229°
2026-05-04 16:35 52.03928 -0.28547 5028 ft 234 kts 229°
2026-05-04 16:35 52.00668 -0.34450 4962 ft 234 kts 229°
2026-05-04 16:36 51.99724 -0.36583 4959 ft 233 kts 244°
2026-05-04 16:36 51.98515 -0.41363 4961 ft 226 kts 244°
2026-05-04 16:37 51.97064 -0.45873 4962 ft 225 kts 242°
2026-05-04 16:37 51.96333 -0.48115 4961 ft 225 kts 243°
2026-05-04 16:37 51.94901 -0.52592 4961 ft 225 kts 243°
2026-05-04 16:38 51.93446 -0.57219 4963 ft 233 kts 243°
2026-05-04 16:39 51.91292 -0.64090 4954 ft 211 kts 243°
2026-05-04 16:39 51.90028 -0.68128 4964 ft 197 kts 244°
2026-05-04 16:40 51.88793 -0.72083 4962 ft 197 kts 244°
2026-05-04 16:40 51.87049 -0.75316 4965 ft 198 kts 198°
2026-05-04 16:41 51.84336 -0.74803 4509 ft 200 kts 165°
2026-05-04 16:41 51.81581 -0.70720 3847 ft 198 kts 82°
2026-05-04 16:42 51.82705 -0.64280 3214 ft 198 kts 74°
2026-05-04 16:43 51.83424 -0.60112 2847 ft 185 kts 74°
2026-05-04 16:43 51.84096 -0.56239 2506 ft 174 kts 74°
2026-05-04 16:43 51.84421 -0.54371 2342 ft 171 kts 73°
2026-05-04 16:44 51.85697 -0.47033 1970 ft 169 kts 74°
2026-05-04 16:45 51.86349 -0.43484 1383 ft 162 kts 73°
2026-05-04 16:46 51.87180 -0.38459 583 ft 145 kts 73°
2026-05-04 16:46 51.87582 -0.36156 518 ft 37 kts 75°
2026-05-04 16:47 51.87673 -0.35920 516 ft 10 kts 352°
2026-05-04 16:47 51.87772 -0.35994 516 ft 7 kts 307°
2026-05-04 16:48 51.87753 -0.36251 518 ft 10 kts 254°
2026-05-04 16:48 51.87733 -0.36367 518 ft 11 kts 253°
2026-05-04 16:49 51.87698 -0.36569 520 ft 8 kts 255°
2026-05-04 16:49 51.87652 -0.36833 525 ft 14 kts 254°
2026-05-04 16:50 51.87590 -0.37191 522 ft 13 kts 254°
2026-05-04 16:50 51.87642 -0.37472 522 ft 16 kts 330°
2026-05-04 16:51 51.87760 -0.37779 523 ft 13 kts 295°
2026-05-04 16:51 51.87801 -0.37911 523 ft 13 kts 299°
2026-05-04 16:51 51.87928 -0.37983 523 ft 6 kts 66°
2026-05-04 16:52 51.87927 -0.37936 523 ft 0 kts 103°
2026-05-04 16:52 51.87926 -0.37931 523 ft 0 kts 103°